Погода в Каракулино

Россия / Удмуртская Республика     56°00′42″N   53°42′16″E
темп.,
°C
ветер,
м/с
пор.,
м/с
влажн.,
%
обл.,
%
осадки,
мм/ч
давл.,
гПа
погр.,
м
4 декабря, сб
сб401:00+1ююз41094100 0.1 1014386
04:00+1ю51199100 0.1 1013491
07:00+2ю71699100 0.2 1010600
10:00+3ююз8188799 0.5 1009731
13:00+3ююз92081100 0.0 10071011
16:00+2ююз91996100 1.3 10071037
19:00+2юз81697100 3.2 1006929
22:00+1зюз51098100 4.8 1008620
5 декабря, вс
вс501:000зюз5984100 0.0 1009744
04:00−2зюз51090100 0.0 1010566
07:00−3зюз499028 0.0 1011504
10:00−3зюз499064 0.0 1013596
13:00−2зюз588397 0.0 1014843
16:00−2з477898 0.1 10161039
19:00−3з3782100 0.0 1017616
22:00−5ссз4484100 0.1 1018400
6 декабря, пн
пн601:00−6ссз3480100 0.0 1019534
04:00−8ссз457797 0.0 1021484
07:00−10ссз45765 0.0 1022438
10:00−11ссз34725 0.0 1024414
13:00−10сз35695 0.0 1026477
16:00−11ссз35755 0.0 1028395
19:00−12с24795 0.0 1029307
22:00−12с128128 0.0 1030212
7 декабря, вт
вт701:00−12ссв11835 0.0 1031125
04:00−12св118414 0.0 103286
07:00−11вюв118415 0.0 103367
10:00−11вюв128164 0.0 1034132
13:00−9вюв237385 0.0 1034277
16:00−9вюв3581100 0.0 1033178
19:00−8юв4780100 0.0 1033282
22:00−7юв4978100 0.0 1032320
8 декабря, ср
ср801:00−7юв51079100 0.1 1030331
04:00−6юв61273100 0.1 1028371
07:00−5юв61495100 1.4 1026450
10:00−2ююв61597100 6.3 1024604
13:00+1ююз71795100 3.6 1022664
16:00+2ююз71693100 4.3 1022608
19:00+1ююз61593100 0.0 1022537
22:00+1ююз51393100 0.1 1023436